Location: Lecco
(45.8566°N, 9.3977°E)
Time: 10:59:49
(UTC+02:00)

Explorer 11/Cluster Stage 4 - Pass Details

Date: 20 August 2020
Orbit: 467 x 1258 km, 28.8° (Epoch: 24 September)

Event Time Altitude Azimuth Distance (km) Brightness Sun altitude
Rises 19:12:05 0° 209° (SSW) 3,252 10.1 11.0°
Reaches altitude 10° 19:16:22 10° 177° (S) 2,538 9.1 10.3°
Maximum altitude 19:18:19 12° 159° (SSE) 2,518 8.9 9.9°
Drops below altitude 10° 19:20:24 10° 140° (SE) 2,725 9.0 9.6°
Sets 19:25:32 0° 111° (ESE) 3,889 9.5 8.7°
